Flag for Guadeloupe Weather past 2 weeks in Pointe-à-Pitre, Guadeloupe

Now
81 °F

Broken clouds.


Feels Like: 86 °F
Forecast: 78 / 85 °F
Wind: 6 mph from East

Location: Le Raizet - Guadeloupe

Current Time: Jul 25, 2014 at 7:20:43 AM

Latest Report: Jul 25, 2014 at 7:00 AM


Visibility: N/A

Pressure: 30.04 "Hg

Humidity: 84%

Dew point: 75 °F

Location of Pointe-à-PitreLocation

Historic Weather in Pointe-à-Pitre — Graph

°F

Pointe-à-Pitre temperature yesterday

Maximum temperature yesterday: 86 °F (at 11:00 AM)
Minimum temperature yesterday: 75 °F (at 12:30 PM)
Average temperature yesterday: 80 °F

Past Weeks' High & Low Weather Summary

 TemperatureHumidityPressure
High90 °F (Jul 13, 1:00 PM)94% (Jul 10, 6:00 AM)30.12 "Hg (Jul 10, 6:00 AM)
Low73 °F (Jul 18, 6:30 AM)46% (Jul 16, 1:38 PM)29.95 "Hg (Jul 24, 4:30 AM)
Average81 °F71%30.05 "Hg
* Reported Jul 10 6:00 AM — Jul 25 6:00 AM, Pointe-à-Pitre, Weather by CustomWeather, © 2014

Note: Actual official high and low records may vary slightly from our data, if they occured in-between our weather recording intervals... More about our weather records

Advertising

Pointe-à-Pitre weather history for previous 24 hours

 ConditionsComfort  
Time TempWeatherWind HumidityBarometerVisibility
6:00 AM
Jul 25
79 °FPartly sunny.6 mph84%30.01 "HgN/A
5:30 AM79 °FOvercast.1 mph89%30.01 "Hg6 mi
5:00 AM79 °FPassing clouds.5 mph89%30.01 "HgN/A
4:30 AM79 °FPassing clouds.6 mph89%30.01 "HgN/A
4:00 AM77 °FPartly cloudy.3 mph94%30.01 "HgN/A
3:30 AM77 °FPassing clouds.2 mph94%29.98 "HgN/A
3:00 AM77 °FRain. Partly cloudy.3 mph94%29.98 "HgN/A
2:30 AM79 °FMostly cloudy.5 mph89%29.98 "HgN/A
2:00 AM79 °FMostly cloudy.3 mph89%30.01 "HgN/A
1:30 AM77 °FOvercast.3 mph94%30.01 "HgN/A
1:00 AM79 °FPartly cloudy.2 mph89%30.01 "HgN/A
12:30 AM79 °FPartly cloudy.5 mph89%30.04 "HgN/A
12:00 AM79 °FLight rain. Overcast.6 mph84%30.04 "HgN/A
11:30 PM
Jul 24
79 °FPartly cloudy.6 mph84%30.04 "HgN/A
11:00 PM77 °FPassing clouds.5 mph89%30.07 "HgN/A
10:30 PM77 °FPartly cloudy.9 mph89%30.07 "HgN/A
10:00 PM77 °FLight rain. Fog.12 mph89%30.07 "Hg3 mi
9:30 PM79 °FPassing clouds.6 mph89%30.04 "HgN/A
9:00 PM81 °FPassing clouds.7 mph79%30.04 "HgN/A
8:30 PM81 °FWarm.6 mph79%30.04 "HgN/A
8:00 PM81 °FPartly cloudy.5 mph79%30.04 "HgN/A
7:30 PM81 °FClear.6 mph79%30.01 "HgN/A
7:00 PM81 °FPassing clouds.6 mph79%30.01 "HgN/A
6:30 PM82 °FBroken clouds.6 mph74%30.01 "HgN/A
6:00 PM82 °FBroken clouds.7 mph74%29.98 "HgN/A
5:30 PM82 °FBroken clouds.8 mph74%29.98 "HgN/A
5:00 PM82 °FBroken clouds.7 mph74%29.98 "HgN/A
4:30 PM81 °FBroken clouds.6 mph84%29.98 "HgN/A
4:00 PM81 °FScattered showers. Broken clouds.8 mph84%29.98 "HgN/A
3:30 PM82 °FScattered showers. Broken clouds.10 mph74%29.98 "HgN/A
3:00 PM82 °FThundershowers. Broken clouds.8 mph79%29.98 "HgN/A
2:30 PM81 °FBroken clouds.9 mph84%29.98 "HgN/A
2:00 PM79 °FBroken clouds.6 mph94%29.98 "HgN/A
1:30 PM77 °FSprinkles. Broken clouds.2 mph94%30.01 "Hg2 mi
1:00 PM77 °FThunderstorms. Broken clouds.5 mph89%30.01 "Hg2 mi
12:30 PM75 °FStrong thunderstorms. Broken clouds.10 mph83%30.04 "Hg5 mi
12:00 PM77 °FSprinkles. Broken clouds.3 mph89%30.04 "Hg5 mi
11:30 AM84 °FRain showers. Broken clouds.15 mph70%30.04 "Hg2 mi
11:00 AM86 °FBroken clouds.20 mph66%30.04 "HgN/A
10:30 AM82 °FBroken clouds.16 mph79%30.04 "HgN/A
10:00 AM84 °FBroken clouds.14 mph74%30.04 "HgN/A
9:30 AM82 °FBroken clouds.12 mph84%30.04 "HgN/A
9:00 AM82 °FBroken clouds.10 mph79%30.04 "HgN/A
8:30 AM81 °FBroken clouds.12 mph84%30.04 "HgN/A
8:00 AM81 °FBroken clouds.13 mph84%30.01 "HgN/A
7:30 AM79 °FBroken clouds.9 mph84%30.01 "HgN/A
7:00 AM79 °FPartly sunny.6 mph84%30.01 "HgN/A
Weather by CustomWeather, © 2014

See weather overviewHow to use our weather pages